LGX43B LIMF-LEBL

Flight info

Callsign LGX43B
Flight time N/A
Altitude 35000
Route LAGEN DCT GEKBA DCT VAMTU DCT KOLON DCT GANGU DCT PADKO DCT DIVKO DCT NILDU DCT BISBA
Aircraft A20N/M-SDE2FGHIJ1RWXY/HB1

Departure

Time 2026-05-07 20:19
Airport Turin Airport (LIMF)

Arrival

Time N/A
Airport Josep Tarradellas Barcelona-El Prat Airport (LEBL)
Time Latitude Longitude Altitude Speed Heading
2026-05-07 20:14 45.18798 7.64547 948 ft 0 kts 223°
2026-05-07 20:15 45.18796 7.64546 947 ft 0 kts 189°
2026-05-07 20:15 45.18790 7.64565 947 ft 4 kts 107°
2026-05-07 20:15 45.18764 7.64626 944 ft 9 kts 155°
2026-05-07 20:16 45.18689 7.64633 942 ft 11 kts 170°
2026-05-07 20:16 45.18662 7.64647 941 ft 1 kts 154°
2026-05-07 20:16 45.18657 7.64650 941 ft 0 kts 154°
2026-05-07 20:16 45.18657 7.64651 941 ft 0 kts 154°
2026-05-07 20:17 45.18646 7.64662 940 ft 3 kts 139°
2026-05-07 20:17 45.18624 7.64711 938 ft 7 kts 107°
2026-05-07 20:17 45.18631 7.64799 937 ft 10 kts 64°
2026-05-07 20:17 45.18686 7.64867 937 ft 10 kts 20°
2026-05-07 20:18 45.18741 7.64879 938 ft 0 kts
2026-05-07 20:18 45.18956 7.64893 944 ft 68 kts
2026-05-07 20:18 45.19669 7.64935 960 ft 133 kts
2026-05-07 20:19 45.20751 7.65010 1113 ft 171 kts
2026-05-07 20:19 45.21964 7.65108 1696 ft 177 kts
2026-05-07 20:19 45.23175 7.65177 2384 ft 177 kts
2026-05-07 20:19 45.24411 7.65239 3026 ft 184 kts
2026-05-07 20:20 45.25727 7.65356 3484 ft 201 kts 13°
2026-05-07 20:20 45.27011 7.66316 3827 ft 222 kts 49°
2026-05-07 20:20 45.27708 7.68333 4292 ft 240 kts 85°
2026-05-07 20:20 45.27443 7.70737 4794 ft 257 kts 110°
2026-05-07 20:21 45.26802 7.73164 5441 ft 269 kts 111°
2026-05-07 20:21 45.26144 7.75634 6270 ft 273 kts 111°
2026-05-07 20:21 45.25475 7.78183 7119 ft 276 kts 112°
2026-05-07 20:21 45.24667 7.80635 7937 ft 280 kts 120°
2026-05-07 20:22 45.23624 7.82985 8702 ft 285 kts 126°
2026-05-07 20:22 45.22469 7.85300 9461 ft 290 kts 127°
2026-05-07 20:22 45.21294 7.87610 10216 ft 295 kts 127°
2026-05-07 20:22 45.20064 7.90039 10767 ft 308 kts 127°
2026-05-07 20:23 45.18761 7.92623 11149 ft 327 kts 127°
2026-05-07 20:23 45.17387 7.95355 11502 ft 345 kts 127°
2026-05-07 20:23 45.15664 7.98053 11818 ft 362 kts 142°
2026-05-07 20:23 45.13416 7.99894 12115 ft 376 kts 161°
2026-05-07 20:24 45.10861 8.00877 12490 ft 387 kts 169°
2026-05-07 20:24 45.08241 8.01676 13093 ft 393 kts 169°
2026-05-07 20:24 45.05547 8.02487 13786 ft 395 kts 169°
2026-05-07 20:24 45.02843 8.03319 14446 ft 399 kts 169°
2026-05-07 20:25 45.00099 8.04181 15069 ft 403 kts 169°
2026-05-07 20:25 44.98495 8.04690 15424 ft 405 kts 169°
2026-05-07 20:25 44.96910 8.05196 15764 ft 407 kts 169°
2026-05-07 20:25 44.94046 8.06112 16360 ft 412 kts 169°
2026-05-07 20:26 44.91201 8.07023 16932 ft 415 kts 169°
2026-05-07 20:26 44.88392 8.07922 17477 ft 419 kts 169°
2026-05-07 20:26 44.85531 8.08939 18006 ft 424 kts 165°
2026-05-07 20:26 44.82740 8.10404 18526 ft 430 kts 158°
2026-05-07 20:27 44.80109 8.12331 19038 ft 435 kts 151°
2026-05-07 20:27 44.77728 8.14468 19525 ft 438 kts 148°
2026-05-07 20:27 44.75163 8.16869 20035 ft 441 kts 148°
2026-05-07 20:27 44.72621 8.19258 20550 ft 443 kts 148°
2026-05-07 20:28 44.70039 8.21671 21120 ft 444 kts 148°
2026-05-07 20:28 44.67493 8.24040 21630 ft 445 kts 148°
2026-05-07 20:28 44.64673 8.26651 22112 ft 449 kts 149°
2026-05-07 20:28 44.61777 8.29321 22570 ft 453 kts 149°
2026-05-07 20:29 44.58874 8.31990 23032 ft 457 kts 149°
2026-05-07 20:29 44.56025 8.34604 23476 ft 460 kts 149°
2026-05-07 20:29 44.53318 8.37087 23878 ft 464 kts 149°
2026-05-07 20:29 44.50611 8.39569 24254 ft 467 kts 150°
2026-05-07 20:30 44.47822 8.41741 24568 ft 465 kts 162°
2026-05-07 20:30 44.44722 8.42777 24895 ft 458 kts 179°
2026-05-07 20:30 44.41568 8.42510 25258 ft 450 kts 196°
2026-05-07 20:30 44.38671 8.41043 25610 ft 442 kts 212°
2026-05-07 20:31 44.36222 8.38558 26050 ft 434 kts 227°
2026-05-07 20:31 44.34371 8.35298 26609 ft 425 kts 241°
2026-05-07 20:31 44.33228 8.31589 27206 ft 417 kts 255°
2026-05-07 20:31 44.32806 8.27576 27793 ft 412 kts 268°
2026-05-07 20:32 44.33095 8.23669 28328 ft 410 kts 277°
2026-05-07 20:32 44.33514 8.19709 28828 ft 405 kts 272°
2026-05-07 20:32 44.33438 8.15846 29262 ft 400 kts 261°
2026-05-07 20:32 44.32896 8.12047 29779 ft 395 kts 258°
2026-05-07 20:33 44.32304 8.08329 30299 ft 390 kts 257°
2026-05-07 20:33 44.31699 8.04680 30720 ft 387 kts 257°
2026-05-07 20:33 44.31081 8.01059 31021 ft 387 kts 256°
2026-05-07 20:33 44.30442 7.97373 31281 ft 387 kts 256°
2026-05-07 20:34 44.29810 7.93755 31545 ft 387 kts 256°
2026-05-07 20:34 44.29147 7.90141 31817 ft 387 kts 254°
2026-05-07 20:34 44.28287 7.86547 32087 ft 387 kts 250°
2026-05-07 20:34 44.27235 7.83120 32347 ft 388 kts 246°
2026-05-07 20:35 44.25985 7.79814 32601 ft 389 kts 242°
2026-05-07 20:35 44.24526 7.76619 32850 ft 390 kts 237°
2026-05-07 20:35 44.22902 7.73626 33064 ft 392 kts 233°
2026-05-07 20:35 44.21085 7.70801 33235 ft 395 kts 228°
2026-05-07 20:36 44.19094 7.68173 33413 ft 397 kts 225°
2026-05-07 20:36 44.17070 7.65608 33610 ft 397 kts 226°
2026-05-07 20:36 44.15135 7.63039 33794 ft 397 kts 228°
2026-05-07 20:36 44.13242 7.60301 33971 ft 397 kts 230°
2026-05-07 20:37 44.11404 7.57403 34140 ft 397 kts 231°
2026-05-07 20:37 44.09608 7.54532 34301 ft 397 kts 231°
2026-05-07 20:37 44.07801 7.51652 34457 ft 398 kts 231°
2026-05-07 20:37 44.05964 7.48725 34614 ft 398 kts 231°
2026-05-07 20:38 44.04165 7.45859 34765 ft 399 kts 231°
2026-05-07 20:38 44.02330 7.42937 34910 ft 399 kts 231°
2026-05-07 20:38 44.00503 7.40029 34998 ft 400 kts 231°
2026-05-07 20:39 43.96856 7.34231 35010 ft 400 kts 230°
2026-05-07 20:39 43.93213 7.28451 35015 ft 400 kts 231°
2026-05-07 20:40 43.89576 7.22688 35019 ft 400 kts 230°
2026-05-07 20:40 43.85954 7.16959 35019 ft 399 kts 230°
2026-05-07 20:41 43.82329 7.11240 35019 ft 398 kts 230°
2026-05-07 20:41 43.78676 7.05487 35019 ft 398 kts 231°
2026-05-07 20:42 43.75236 6.99503 35019 ft 397 kts 236°
2026-05-07 20:42 43.72228 6.93124 35018 ft 398 kts 240°
2026-05-07 20:43 43.69654 6.86363 35019 ft 399 kts 245°
2026-05-07 20:43 43.67494 6.79325 35019 ft 399 kts 247°
2026-05-07 20:44 43.65387 6.72222 35016 ft 400 kts 247°
2026-05-07 20:44 43.63274 6.65106 35018 ft 402 kts 247°
2026-05-07 20:45 43.61164 6.58004 35019 ft 402 kts 247°
2026-05-07 20:45 43.59037 6.50860 35019 ft 402 kts 247°
2026-05-07 20:46 43.56905 6.43716 35019 ft 402 kts 247°
2026-05-07 20:46 43.54804 6.36696 35019 ft 402 kts 247°
2026-05-07 20:47 43.52690 6.29655 35019 ft 402 kts 246°
2026-05-07 20:47 43.50571 6.22606 35019 ft 402 kts 246°
2026-05-07 20:48 43.48426 6.15501 35019 ft 401 kts 246°
2026-05-07 20:48 43.46285 6.08426 35019 ft 401 kts 246°
2026-05-07 20:49 43.44147 6.01379 35019 ft 401 kts 246°
2026-05-07 20:49 43.41987 5.94283 35019 ft 401 kts 246°
2026-05-07 20:50 43.39838 5.87245 35019 ft 401 kts 246°
2026-05-07 20:50 43.37684 5.80211 35019 ft 401 kts 246°
2026-05-07 20:51 43.35524 5.73175 35019 ft 402 kts 246°
2026-05-07 20:51 43.33351 5.66116 35019 ft 402 kts 246°
2026-05-07 20:52 43.31172 5.59063 35019 ft 402 kts 246°
2026-05-07 20:52 43.28981 5.51986 35019 ft 402 kts 246°
2026-05-07 20:53 43.26803 5.44973 35019 ft 402 kts 246°
2026-05-07 20:53 43.24605 5.37913 35019 ft 402 kts 246°
2026-05-07 20:54 43.22408 5.30875 35019 ft 403 kts 245°
2026-05-07 20:54 43.20211 5.23846 35018 ft 403 kts 245°
2026-05-07 20:55 43.17990 5.16758 35019 ft 404 kts 245°
2026-05-07 20:55 43.15767 5.09696 35020 ft 406 kts 245°
2026-05-07 20:56 43.13541 5.02638 35019 ft 404 kts 245°
2026-05-07 20:56 43.11299 4.95552 35019 ft 404 kts 245°
2026-05-07 20:57 43.09047 4.88558 35018 ft 403 kts 243°
2026-05-07 20:57 43.06330 4.81872 35019 ft 403 kts 237°
2026-05-07 20:58 43.03045 4.75694 35019 ft 402 kts 231°
2026-05-07 20:58 42.99237 4.70102 35018 ft 406 kts 224°
2026-05-07 20:59 42.95030 4.64942 35019 ft 406 kts 223°
2026-05-07 20:59 42.90806 4.59824 35019 ft 406 kts 223°
2026-05-07 21:00 42.86576 4.54721 35019 ft 406 kts 223°
2026-05-07 21:00 42.82335 4.49620 35019 ft 406 kts 223°
2026-05-07 21:01 42.78067 4.44498 35018 ft 406 kts 223°
2026-05-07 21:01 42.73778 4.39354 35019 ft 413 kts 222°
2026-05-07 21:02 42.69430 4.34161 35019 ft 413 kts 221°
2026-05-07 21:02 42.65107 4.29008 35019 ft 413 kts 221°
2026-05-07 21:03 42.60793 4.23871 35018 ft 413 kts 221°
2026-05-07 21:03 42.56490 4.18756 35019 ft 414 kts 221°
2026-05-07 21:04 42.52153 4.13615 35019 ft 414 kts 221°
2026-05-07 21:04 42.47718 4.08367 35019 ft 414 kts 221°
2026-05-07 21:05 42.43391 4.03256 34732 ft 413 kts 221°
2026-05-07 21:05 42.41172 4.00637 34475 ft 411 kts 221°
2026-05-07 21:05 42.38999 3.98075 34221 ft 408 kts 221°
2026-05-07 21:05 42.36890 3.95591 33973 ft 405 kts 221°
2026-05-07 21:06 42.34589 3.92885 33701 ft 404 kts 220°
2026-05-07 21:06 42.32422 3.90340 33344 ft 404 kts 220°
2026-05-07 21:06 42.30213 3.87746 32781 ft 405 kts 220°
2026-05-07 21:06 42.27992 3.85142 32082 ft 405 kts 220°
2026-05-07 21:07 42.25744 3.82506 31309 ft 406 kts 220°
2026-05-07 21:07 42.23564 3.79950 30519 ft 408 kts 219°
2026-05-07 21:07 42.21264 3.77259 29642 ft 410 kts 219°
2026-05-07 21:07 42.19008 3.74636 28772 ft 412 kts 219°
2026-05-07 21:08 42.16741 3.71996 27896 ft 414 kts 219°
2026-05-07 21:08 42.14563 3.69462 27595 ft 413 kts 219°
2026-05-07 21:08 42.12356 3.66893 27416 ft 415 kts 220°
2026-05-07 21:08 42.10264 3.64235 27092 ft 408 kts 226°
2026-05-07 21:09 42.08551 3.61300 26891 ft 397 kts 234°
2026-05-07 21:09 42.07194 3.58115 26906 ft 383 kts 241°
2026-05-07 21:09 42.06086 3.54884 26929 ft 382 kts 243°
2026-05-07 21:09 42.05022 3.51667 26944 ft 381 kts 243°
2026-05-07 21:10 42.03922 3.48332 26953 ft 381 kts 243°
2026-05-07 21:10 42.02839 3.45057 26942 ft 382 kts 243°
2026-05-07 21:10 42.01744 3.41761 26603 ft 384 kts 243°
2026-05-07 21:10 42.00635 3.38433 26043 ft 383 kts 243°
2026-05-07 21:11 41.99548 3.35174 25550 ft 381 kts 244°
2026-05-07 21:11 41.98465 3.31929 25073 ft 379 kts 243°
2026-05-07 21:11 41.96332 3.25550 24131 ft 374 kts 244°
2026-05-07 21:12 41.95347 3.22341 23657 ft 371 kts 249°
2026-05-07 21:12 41.94526 3.19070 23207 ft 368 kts 252°
2026-05-07 21:12 41.93872 3.15752 22725 ft 366 kts 255°
2026-05-07 21:12 41.93294 3.12455 22218 ft 365 kts 256°
2026-05-07 21:13 41.92720 3.09150 21697 ft 364 kts 256°
2026-05-07 21:13 41.92147 3.05862 21177 ft 363 kts 256°
2026-05-07 21:13 41.91568 3.02542 20649 ft 362 kts 256°
2026-05-07 21:13 41.90970 2.99123 20106 ft 362 kts 257°
2026-05-07 21:14 41.90378 2.95746 19569 ft 361 kts 257°
2026-05-07 21:14 41.89789 2.92392 19037 ft 360 kts 257°
2026-05-07 21:14 41.89219 2.89155 18527 ft 360 kts 257°
2026-05-07 21:14 41.88642 2.85879 18014 ft 359 kts 257°
2026-05-07 21:15 41.88068 2.82627 17527 ft 357 kts 257°
2026-05-07 21:15 41.87503 2.79432 17066 ft 355 kts 257°
2026-05-07 21:15 41.86930 2.76193 16606 ft 353 kts 257°
2026-05-07 21:15 41.86367 2.73029 16160 ft 350 kts 257°
2026-05-07 21:16 41.85799 2.69839 15709 ft 348 kts 257°
2026-05-07 21:16 41.85237 2.66686 15261 ft 346 kts 257°
2026-05-07 21:16 41.84679 2.63562 14817 ft 344 kts 257°
2026-05-07 21:16 41.84112 2.60392 14367 ft 342 kts 257°
2026-05-07 21:17 41.83558 2.57300 13927 ft 340 kts 257°
2026-05-07 21:17 41.82986 2.54111 13475 ft 337 kts 256°
2026-05-07 21:17 41.82420 2.50958 13028 ft 335 kts 256°
2026-05-07 21:17 41.81860 2.47848 12588 ft 334 kts 256°
2026-05-07 21:18 41.81300 2.44752 12149 ft 332 kts 256°
2026-05-07 21:18 41.80745 2.41683 11713 ft 330 kts 256°
2026-05-07 21:18 41.80184 2.38590 11273 ft 328 kts 256°
2026-05-07 21:18 41.79630 2.35540 10838 ft 327 kts 256°
2026-05-07 21:19 41.79096 2.32604 10430 ft 325 kts 256°
2026-05-07 21:19 41.78563 2.29681 10239 ft 314 kts 256°
2026-05-07 21:19 41.78011 2.26651 10133 ft 300 kts 256°
2026-05-07 21:19 41.77518 2.23947 10022 ft 289 kts 255°
2026-05-07 21:20 41.76759 2.21438 9641 ft 287 kts 232°